Retour au catalogue

STARLINK-33838

ActifCommunicationsVLEO
NORAD 63500·PAYLOAD·🇺🇸 United States

Lancé Apr 7, 2025 depuis Vandenberg Space Force Base

Loading…

Prochains Passages (prochaines 24 heures)

TLE

FraisSource: CelesTrak SupGP

Époque: Sep 14, 2026, 15:05 UTC

1 63500C 25071H   26257.62895833 -.00401950  00000+0 -12165-1 0  2578
2 63500  53.1611 340.7174 0001800  75.0177 155.8805 15.33832109    13

Suivez STARLINK-33838 en temps réel avec AllMySat

Download on the App Store